Weather History for KMZZ - February, 2014

Change the Weather History Date:

Friday, February 21, 2014

  Actual Average (KMIE) Record (KMIE)
Temperature  
Mean Temperature 34 °F 31 °F  
Max Temperature 52 °F 40 °F 64 °F (1983)
Min Temperature 32 °F 23 °F -126 °F (1999)
Degree Days  
Heating Degree Days 31 34  
Month to date heating degree days 762  
Since 1 July heating degree days 4155  
Cooling Degree Days 0 0  
Month to date cooling degree days 0  
Year to date cooling degree days 0  
Moisture  
Dew Point 25 °F    
Average Humidity 70    
Maximum Humidity 84    
Minimum Humidity 56    
Precipitation  
Precipitation 0.08 in 0.07 in 0.70 in (2011)
Month to date precipitation 1.73  
Year to date precipitation 3.96  
Sea Level Pressure  
Sea Level Pressure 29.74 in    
Wind  
Wind Speed 19 mph (WSW)    
Max Wind Speed 33 mph    
Max Gust Speed 44 mph    
Visibility 8 miles    
Events Snow    
T = Trace of Precipitation, MM = Missing Value Source: NWS Daily Summary

Daily Weather History Graph

Daily Weather History Graph

Search for Another Location

Airport or City:

Trip Planner

Search our weather history database for the weather conditions in past years. The results will help you decide how hot, cold, wet, or windy it might be!

Date:

Astronomy

Feb. 21, 2014 Rise Set
Actual Time 7:28 AM EST 6:25 PM EST
Civil Twilight 7:00 AM EST 6:52 PM EST
Nautical Twilight 6:28 AM EST 7:24 PM EST
Astronomical Twilight 5:57 AM EST 7:56 PM EST
Moon 12:19 AM EST (2/21) 10:50 AM EST (2/21)
Length of Visible Light 11h 52m
Length of Day
10h 56m
Waning Gibbous, 61% of the Moon is Illuminated
Feb 21
Waning Gibbous
Feb 22
Last Quarter
Mar 1
New
Mar 8
First Quarter
Mar 16
Full

Hourly Weather History & Observations

Time (EST) Temp. Windchill Dew Point Humidity Pressure Visibility Wind Dir Wind Speed Gust Speed Precip Events Conditions
12:15 AM 36.3 °F 25.8 °F 30.2 °F 78% 29.57 in 10.0 mi West 19.6 mph 26.5 mph N/A   Overcast
12:35 AM 36.0 °F 26.3 °F 30.2 °F 80% 29.57 in 10.0 mi West 16.1 mph 23.0 mph N/A   Overcast
12:55 AM 35.8 °F 25.1 °F 30.0 °F 80% 29.59 in 7.0 mi West 19.6 mph 25.3 mph N/A   Overcast
1:15 AM 35.8 °F 25.4 °F 29.5 °F 78% 29.59 in 10.0 mi West 18.4 mph - N/A   Overcast
1:35 AM 35.6 °F 27.1 °F 29.1 °F 77% 29.59 in 7.0 mi WSW 12.7 mph - N/A   Overcast
1:55 AM 35.4 °F 26.4 °F 29.3 °F 78% 29.59 in 4.0 mi WSW 13.8 mph - N/A Snow Light Snow
2:15 AM 34.9 °F 25.7 °F 29.3 °F 80% 29.60 in 5.0 mi WSW 13.8 mph - N/A Snow Light Snow
2:35 AM 34.5 °F 24.8 °F 29.3 °F 81% 29.60 in 10.0 mi SW 15.0 mph 18.4 mph N/A   Clear
2:55 AM 34.7 °F 24.7 °F 29.1 °F 80% 29.62 in 10.0 mi SW 16.1 mph - N/A   Clear
3:15 AM 34.7 °F 23.4 °F 28.9 °F 79% 29.61 in 7.0 mi SW 20.7 mph 26.5 mph N/A   Clear
3:35 AM 34.5 °F 23.1 °F 28.6 °F 79% 29.60 in 5.0 mi SW 20.7 mph 26.5 mph N/A Snow Light Snow
3:55 AM 34.3 °F 22.6 °F 28.4 °F 79% 29.60 in 10.0 mi WSW 21.9 mph - N/A   Clear
4:15 AM 34.5 °F 23.4 °F 28.0 °F 77% 29.60 in 10.0 mi WSW 19.6 mph 25.3 mph N/A   Clear
4:35 AM 34.3 °F 23.2 °F 28.0 °F 78% 29.61 in 10.0 mi SW 19.6 mph - N/A   Clear
4:55 AM 34.3 °F 23.2 °F 28.0 °F 78% 29.62 in 7.0 mi SW 19.6 mph 23.0 mph N/A   Scattered Clouds
5:15 AM 34.7 °F 23.7 °F 28.0 °F 77% 29.62 in 10.0 mi SW 19.6 mph 25.3 mph N/A   Mostly Cloudy
5:35 AM 34.7 °F 23.7 °F 28.0 °F 77% 29.63 in 10.0 mi SW 19.6 mph 26.5 mph N/A   Overcast
5:55 AM 34.9 °F 23.9 °F 27.7 °F 75% 29.63 in 10.0 mi SW 19.6 mph - N/A   Overcast
6:15 AM 34.9 °F 23.6 °F 27.5 °F 74% 29.63 in 10.0 mi SW 20.7 mph - N/A   Overcast
6:35 AM 34.9 °F 23.9 °F 27.9 °F 76% 29.63 in 7.0 mi SW 19.6 mph 24.2 mph N/A   Overcast
6:55 AM 34.7 °F 23.4 °F 27.7 °F 76% 29.63 in 10.0 mi WSW 20.7 mph 32.2 mph N/A   Overcast
7:15 AM 34.9 °F 23.6 °F 26.6 °F 72% 29.64 in 4.0 mi WSW 20.7 mph 29.9 mph N/A Snow Light Snow
7:35 AM 34.7 °F 22.0 °F 26.1 °F 71% 29.65 in 10.0 mi WSW 26.5 mph 29.9 mph N/A   Overcast
7:55 AM 34.5 °F 23.8 °F 26.4 °F 72% 29.66 in 4.0 mi WSW 18.4 mph 28.8 mph N/A Snow Light Snow
8:15 AM 33.6 °F 23.3 °F 27.3 °F 78% 29.66 in 4.0 mi WSW 16.1 mph - N/A Snow Light Snow
8:35 AM 32.9 °F 23.7 °F 28.4 °F 84% 29.68 in 5.0 mi WSW 12.7 mph - N/A Snow Light Snow
8:55 AM 33.6 °F 19.6 °F 27.3 °F 78% 29.69 in 10.0 mi WSW 31.1 mph 35.7 mph N/A   Overcast
9:15 AM 33.8 °F 21.6 °F 26.2 °F 74% 29.69 in 10.0 mi WSW 23.0 mph 36.8 mph N/A   Overcast
9:35 AM 33.3 °F 20.6 °F 25.7 °F 74% 29.69 in 10.0 mi WSW 24.2 mph 34.5 mph N/A   Overcast
9:55 AM 33.3 °F 20.3 °F 25.2 °F 72% 29.70 in 10.0 mi WSW 25.3 mph 35.7 mph N/A   Overcast
10:15 AM 33.1 °F 19.8 °F 25.0 °F 72% 29.70 in 10.0 mi WSW 26.5 mph 41.4 mph N/A   Overcast
10:35 AM 32.7 °F 19.3 °F 25.0 °F 73% 29.71 in 10.0 mi WSW 26.5 mph 35.7 mph N/A   Overcast
10:55 AM 32.5 °F 20.5 °F 24.8 °F 73% 29.72 in 5.0 mi WSW 20.7 mph 33.4 mph N/A Snow Light Snow
11:15 AM 32.5 °F 18.4 °F 23.9 °F 70% 29.73 in 10.0 mi WSW 29.9 mph 38.0 mph N/A   Overcast
11:35 AM 32.2 °F 17.6 °F 23.2 °F 69% 29.74 in 10.0 mi WSW 31.1 mph 40.3 mph N/A   Overcast
11:55 AM 32.2 °F 18.9 °F 23.7 °F 71% 29.75 in 10.0 mi WSW 25.3 mph 35.7 mph N/A   Overcast
12:15 PM 32.5 °F 19.4 °F 24.1 °F 71% 29.76 in 10.0 mi WSW 25.3 mph 35.7 mph N/A   Overcast
12:35 PM 33.1 °F 19.6 °F 23.9 °F 69% 29.76 in 5.0 mi WSW 27.6 mph 38.0 mph N/A   Haze
12:55 PM 33.6 °F 20.1 °F 24.3 °F 69% 29.76 in 10.0 mi WSW 28.8 mph 36.8 mph N/A   Overcast
1:15 PM 34.0 °F 19.7 °F 24.3 °F 68% 29.77 in 10.0 mi WSW 33.4 mph 39.1 mph N/A   Overcast
1:35 PM 34.3 °F 20.6 °F 24.3 °F 67% 29.77 in 10.0 mi WSW 31.1 mph 43.7 mph N/A   Mostly Cloudy
1:55 PM 34.3 °F 20.2 °F 24.3 °F 67% 29.77 in 7.0 mi WSW 33.4 mph 40.3 mph N/A   Mostly Cloudy
2:15 PM 34.2 °F 20.6 °F 24.3 °F 67% 29.78 in 10.0 mi WSW 29.9 mph 40.3 mph N/A   Scattered Clouds
2:35 PM 34.2 °F 21.0 °F 23.9 °F 66% 29.78 in 10.0 mi WSW 27.6 mph 38.0 mph N/A   Scattered Clouds
2:55 PM 34.7 °F 21.8 °F 23.9 °F 65% 29.79 in 5.0 mi WSW 27.6 mph 34.5 mph N/A   Haze
3:15 PM 34.9 °F 22.0 °F 23.4 °F 63% 29.79 in 10.0 mi WSW 27.6 mph 36.8 mph N/A   Clear
3:35 PM 35.2 °F 22.7 °F 23.0 °F 61% 29.80 in 10.0 mi WSW 26.5 mph 32.2 mph N/A   Clear
3:55 PM 35.6 °F 23.4 °F 22.5 °F 59% 29.81 in 10.0 mi WSW 25.3 mph 35.7 mph N/A   Clear
4:15 PM 36.0 °F 24.7 °F 21.9 °F 57% 29.82 in 10.0 mi WSW 21.9 mph 31.1 mph N/A   Clear
4:35 PM 36.1 °F 24.4 °F 21.9 °F 56% 29.83 in 7.0 mi WSW 24.2 mph 32.2 mph N/A   Clear
4:55 PM 36.1 °F 25.0 °F 21.6 °F 56% 29.83 in 10.0 mi WSW 21.9 mph 27.6 mph N/A   Clear
5:15 PM 36.3 °F 25.5 °F 21.9 °F 56% 29.83 in 10.0 mi WSW 20.7 mph 27.6 mph N/A   Clear
5:35 PM 36.5 °F 26.3 °F 22.1 °F 56% 29.83 in 10.0 mi WSW 18.4 mph 24.2 mph N/A   Clear
5:55 PM 36.3 °F 26.8 °F 22.3 °F 57% 29.84 in 7.0 mi WSW 16.1 mph 24.2 mph N/A   Clear
6:15 PM 36.1 °F 26.5 °F 22.1 °F 57% 29.85 in 2.5 mi WSW 16.1 mph 21.9 mph N/A Snow Light Snow
6:35 PM 35.6 °F 27.1 °F 23.0 °F 60% 29.85 in 10.0 mi WSW 12.7 mph - N/A   Clear
6:55 PM 34.7 °F 25.9 °F 24.4 °F 66% 29.86 in 10.0 mi WSW 12.7 mph - N/A   Clear
7:15 PM 34.7 °F 25.1 °F 24.6 °F 67% 29.87 in 7.0 mi SW 15.0 mph - N/A   Clear
7:35 PM 35.1 °F 26.4 °F 24.4 °F 65% 29.88 in 7.0 mi SW 12.7 mph - N/A Snow Light Snow
7:55 PM 34.9 °F 26.2 °F 24.6 °F 66% 29.89 in 7.0 mi SW 12.7 mph - N/A   Clear
8:15 PM 35.1 °F 25.5 °F 24.3 °F 65% 29.89 in 10.0 mi SW 15.0 mph - N/A   Clear
8:35 PM 34.9 °F 26.2 °F 23.9 °F 64% 29.89 in 10.0 mi SW 12.7 mph - N/A   Clear
8:55 PM 34.7 °F 26.4 °F 23.7 °F 64% 29.89 in 7.0 mi SW 11.5 mph - N/A   Clear
9:15 PM 34.7 °F 26.9 °F 23.5 °F 64% 29.89 in 7.0 mi SW 10.4 mph - N/A   Scattered Clouds
9:35 PM 34.0 °F 26.0 °F 23.5 °F 66% 29.89 in 7.0 mi SSW 10.4 mph - N/A Snow Light Snow
9:55 PM 34.0 °F 27.2 °F 23.5 °F 66% 29.89 in 7.0 mi SSW 8.1 mph - N/A   Scattered Clouds
10:15 PM 33.3 °F 26.4 °F 23.5 °F 68% 29.89 in 10.0 mi South 8.1 mph - N/A   Scattered Clouds
10:35 PM 33.3 °F 27.1 °F 24.3 °F 70% 29.88 in 10.0 mi South 6.9 mph - N/A   Overcast
10:55 PM 33.8 °F 27.7 °F 24.3 °F 68% 29.88 in 10.0 mi SSW 6.9 mph - N/A   Overcast
11:15 PM 34.5 °F 27.3 °F 23.5 °F 64% 29.88 in 10.0 mi SSW 9.2 mph - N/A   Overcast
11:35 PM 34.7 °F 28.1 °F 23.4 °F 63% 29.88 in 10.0 mi SSW 8.1 mph - N/A   Overcast
11:55 PM 34.5 °F 26.7 °F 23.5 °F 64% 29.87 in 10.0 mi SSW 10.4 mph - N/A   Overcast